TimeCDT,TemperatureF,Dew PointF,Humidity,Sea Level PressureIn,VisibilityMPH,Wind Direction,Wind SpeedMPH,Gust SpeedMPH,PrecipitationIn,Events,Conditions,WindDirDegrees,DateUTC
12:53 AM,57.0,46.9,69,29.94,10.0,Calm,Calm,-,N/A,,Clear,0,2013-10-21 05:53:00
1:53 AM,55.9,48.0,75,29.93,10.0,South,4.6,-,N/A,,Clear,190,2013-10-21 06:53:00
2:53 AM,57.0,51.1,81,29.93,10.0,South,5.8,-,N/A,,Clear,190,2013-10-21 07:53:00
3:53 AM,59.0,54.0,83,29.92,10.0,SSW,5.8,-,N/A,,Partly Cloudy,200,2013-10-21 08:53:00
4:53 AM,60.1,57.0,90,29.92,10.0,Calm,Calm,-,N/A,,Scattered Clouds,0,2013-10-21 09:53:00
5:24 AM,61.0,57.0,87,29.96,10.0,South,3.5,-,N/A,,Mostly Cloudy,170,2013-10-21 10:24:00
5:53 AM,62.1,57.0,84,29.93,10.0,Calm,Calm,-,N/A,,Overcast,0,2013-10-21 10:53:00
6:33 AM,61.0,57.9,90,29.96,10.0,South,5.8,-,N/A,,Scattered Clouds,180,2013-10-21 11:33:00
6:53 AM,61.0,57.9,90,29.93,10.0,South,5.8,-,N/A,,Clear,170,2013-10-21 11:53:00
7:12 AM,61.0,57.9,90,29.96,10.0,South,5.8,-,N/A,,Mostly Cloudy,170,2013-10-21 12:12:00
7:53 AM,61.0,57.9,90,29.93,9.0,SSW,4.6,-,N/A,,Mostly Cloudy,200,2013-10-21 12:53:00
8:53 AM,63.0,59.0,87,29.94,8.0,South,8.1,-,N/A,,Mostly Cloudy,190,2013-10-21 13:53:00
9:53 AM,64.0,59.0,84,29.98,10.0,South,5.8,-,N/A,,Overcast,170,2013-10-21 14:53:00
10:53 AM,68.0,61.0,78,29.99,10.0,Calm,Calm,-,N/A,,Overcast,0,2013-10-21 15:53:00
11:53 AM,70.0,61.0,73,30.00,10.0,North,3.5,-,N/A,,Overcast,10,2013-10-21 16:53:00
12:53 PM,72.0,62.1,71,-9999,10.0,Calm,Calm,-,N/A,,Overcast,0,2013-10-21 17:53:00
1:15 PM,73.0,63.0,71,-9999,10.0,SSE,3.5,-,N/A,,Scattered Clouds,160,2013-10-21 18:15:00
1:53 PM,75.0,62.1,64,-9999,10.0,Variable,3.5,-,N/A,,Scattered Clouds,0,2013-10-21 18:53:00
2:08 PM,73.9,62.1,66,-9999,10.0,WNW,3.5,-,N/A,,Mostly Cloudy,300,2013-10-21 19:08:00
2:15 PM,75.0,62.1,64,-9999,10.0,NNE,4.6,-,N/A,,Overcast,30,2013-10-21 19:15:00
2:23 PM,75.0,62.1,64,-9999,10.0,Calm,Calm,-,N/A,,Overcast,0,2013-10-21 19:23:00
2:38 PM,73.9,62.1,66,-9999,10.0,West,5.8,-,N/A,,Overcast,280,2013-10-21 19:38:00
2:53 PM,73.9,62.1,66,-9999,10.0,West,4.6,-,N/A,,Overcast,270,2013-10-21 19:53:00
3:53 PM,75.9,62.1,62,-9999,10.0,North,8.1,-,N/A,,Overcast,360,2013-10-21 20:53:00
4:02 PM,73.9,62.1,66,-9999,10.0,North,8.1,-,N/A,,Overcast,10,2013-10-21 21:02:00
4:12 PM,73.9,61.0,64,-9999,10.0,North,9.2,-,N/A,,Mostly Cloudy,10,2013-10-21 21:12:00
4:20 PM,73.9,61.0,64,-9999,10.0,North,8.1,-,N/A,,Mostly Cloudy,10,2013-10-21 21:20:00
4:53 PM,75.9,59.0,56,-9999,10.0,NNW,9.2,-,N/A,,Mostly Cloudy,340,2013-10-21 21:53:00
5:53 PM,72.0,57.9,61,-9999,10.0,NNW,13.8,-,N/A,,Overcast,340,2013-10-21 22:53:00
6:53 PM,69.1,55.9,63,-9999,10.0,North,6.9,-,N/A,,Overcast,350,2013-10-21 23:53:00
7:53 PM,66.0,54.0,65,-9999,10.0,North,12.7,-,N/A,,Mostly Cloudy,360,2013-10-22 00:53:00
8:53 PM,62.1,53.1,72,-9999,10.0,North,15.0,21.9,N/A,,Overcast,360,2013-10-22 01:53:00
9:53 PM,59.0,51.1,75,-9999,10.0,North,8.1,-,N/A,,Scattered Clouds,360,2013-10-22 02:53:00
10:53 PM,59.0,52.0,78,-9999,10.0,North,8.1,-,N/A,,Mostly Cloudy,10,2013-10-22 03:53:00
11:53 PM,57.9,52.0,81,-9999,10.0,North,8.1,-,N/A,,Mostly Cloudy,10,2013-10-22 04:53:00